Showing default

COSMOS 198, 3081

Orbit data source: Space-Track

COSMOS 198, 3081 is a payload satellite owned by TSKBM (CIS) in LEO that was launched on Wed, 27 Dec 1967 UTC via a TSIKLON-2A launch vehicle from the Tyuratam Missile And Space Complex (TTMTR). Payloads include a variety of satellites, spacecraft, and rockets equipped with specific instruments for various scientific and technological missions. These include communications satellites like Starlink; space stations such as the ISS; scientific satellites like the Hubble; Earth observation satellites from companies like Planet Labs, Umbra, and HawkEye 360; GPS; miniature CubeSats for education and research; and military/defense satellites.

Loading next visibility...
COSMOS 198 details
Identifier
3081, 1967-127A
Orbit
LEO
Last TLE update4 hours ago
Origin
Flag of CISTSKBM (CIS)
ManufacturerTSKBM/KB1
MissionDefense Sigint
Bus & MotorUS-A ROCH, Unknown motor
Mass3,800 kg wet, 1,140 kg dry
Launch date (UTC)
1967-12-27 (57 years ago)
Launch vehicle
TSIKLON-2A
Launch site
Tyuratam Missile And Space Complex (TTMTR)
Object type
Payload
Rocket body
Debris
Shape & HBRCyl + Cone, 5.8 m
Radar Cross Section6.586 m², Large (>1 m²)

Expand to show TLE details & history

TLE from 4 hours ago
0 COSMOS 198
1  3081U 67127A   25023.56598986 -.00000007  00000-0  62760-4 0  9996
2  3081  65.1420 175.1430 0042467 266.2682  93.3528 13.93346898903059
Epoch: 2025-01-23T13:35Z
Definitive object data (Epoch: 2025-01-23T13:35:01.523Z)
Latitude-0.00001°
Longitude-151.75503°
Altitude920.817 km
Speed7.391 km/s
True Right ascension11h 40m 34s
True Declination0° 00' 00"
Sunlit
Object was in full shadow at TLE epoch
Visualization TLE readout
Latitude26.06559°
Longitude14.76173°
Altitude932.171 km
Speed7.382 km/s
Apparent Right ascension01h 52m 25s
Apparent Declination-8° 46' 07"
Sunlit
Object is in daylight
Visualization observer readout
Local Sidereal Time18:58:07
Azimuth88.097° E
Elevation-16.005°
Doppler factor1
Orbital elements
Apogee altitude946.486 km
Perigee altitude884.538 km
Semi-major axis7,293.649 km
Eccentricity0.0042467
Inclination65.142°
RAAN175.143°
Arg. of periapsis266.2682°
True anomaly93.83845°
Mean anomaly93.3528°
Eccentric anomaly93.59564°
Mean motion3.48438 °/min
BSTAR0.00006276
Orbital period103.32 mins
Loading maneuver chart data...
Loading historical data...
Loading historical data...
Loading historical data...
Loading historical data...
Loading historical data...
Loading historical data...
Loading historical data...
Other satellites on launch #127 in the year 1967 (1967-12-27 UTC)

COSMOS 198 Visibility forecast

Observer location: undefined°, undefined

Span
Click to sort rows by Start time (UTC) header in descending order
Start Az.
Max El. time (UTC)
Max El. Az.
Max El.
End time (UTC)
End Az.
9 mins2025-01-23 19:16:21.072Z353.139° N2025-01-23 19:20:21.072Z36.141° NE21.666°2025-01-23 19:25:21.072Z92.718° ESE
10 mins2025-01-23 21:03:21.072Z322.281° NNW2025-01-23 21:07:21.072Z275.489° WNW42.878°2025-01-23 21:13:21.072Z159.886° S
7 mins2025-01-24 10:23:21.072Z145.088° SSE2025-01-24 10:26:21.072Z108.652° ESE21.099°2025-01-24 10:30:21.072Z63.473° ENE
11 mins2025-01-24 12:07:21.072Z227.573° WSW2025-01-24 12:12:21.072Z303.677° NW40.936°2025-01-24 12:18:21.072Z24.802° NE
4 mins2025-01-24 13:58:21.072Z307.589° NW2025-01-24 14:00:21.072Z328.494° NNW13.819°2025-01-24 14:02:21.072Z348.949° N
|